When you browse on this site, cookies collect data to enhance your experience and personalize the content and advertising you see.
Visit our Privacy Policy to learn more. By continuing to use the site, you agree to this use of cookies and data.
  • In Austria
  • List of Countries
  • For 7 days
  • Water Temperature
  • Weather Map
  • News
  • Weather Widgets
  • user-avatar
    Login

    Hourly Weather Nakhchivan

    Today, 20 August, Tuesday

    Time Temperature Precipitation Wind Pressure Humidity
    00:00 +28°C° 0 mm 2 mps 689 mmHg 23%
    01:00 +27°C° 0 mm 2 mps 689 mmHg 24%
    02:00 +26°C° 0 mm 1 mps 689 mmHg 25%
    03:00 +26°C° 0 mm 1 mps 689 mmHg 26%
    04:00 +26°C° 0 mm 1 mps 689 mmHg 26%
    05:00 +26°C° 0 mm 1 mps 690 mmHg 26%
    06:00 +25°C° 0 mm 1 mps 690 mmHg 26%
    07:00 +28°C° 0 mm 2 mps 690 mmHg 22%
    08:00 +30°C° 0 mm 2 mps 691 mmHg 18%
    09:00 +32°C° 0 mm 2 mps 691 mmHg 14%
    10:00 +35°C° 0 mm 2 mps 691 mmHg 11%
    11:00 +37°C° 0 mm 3 mps 691 mmHg 9%
    12:00 +38°C° 0 mm 3 mps 691 mmHg 7%
    13:00 +39°C° 0 mm 3 mps 691 mmHg 7%
    14:00 +41°C° 0 mm 4 mps 691 mmHg 6%
    15:00 +42°C° 0 mm 4 mps 690 mmHg 6%
    16:00 +41°C° 0 mm 5 mps 690 mmHg 6%
    17:00 +40°C° 0 mm 5 mps 690 mmHg 7%
    18:00 +39°C° 0 mm 5 mps 690 mmHg 7%
    19:00 +35°C° 0 mm 4 mps 690 mmHg 9%
    20:00 +33°C° 0 mm 4 mps 690 mmHg 11%
    21:00 +30°C° 0 mm 3 mps 690 mmHg 13%
    22:00 +29°C° 0 mm 3 mps 690 mmHg 15%
    23:00 +28°C° 0 mm 2 mps 689 mmHg 16%

    Tomorrow, 21 August, Wednesday

    Time Temperature Precipitation Wind Pressure Humidity
    00:00 +27°C° 0 mm 2 mps 689 mmHg 18%
    01:00 +26°C° 0 mm 2 mps 689 mmHg 20%
    02:00 +25°C° 0 mm 1 mps 689 mmHg 22%
    03:00 +24°C° 0 mm 1 mps 689 mmHg 24%
    04:00 +24°C° 0 mm 1 mps 689 mmHg 24%
    05:00 +24°C° 0 mm 1 mps 689 mmHg 24%
    06:00 +24°C° 0 mm 1 mps 689 mmHg 25%
    07:00 +27°C° 0 mm 1 mps 690 mmHg 22%
    08:00 +29°C° 0 mm 1 mps 690 mmHg 18%
    09:00 +31°C° 0 mm 1 mps 690 mmHg 15%
    10:00 +33°C° 0 mm 1 mps 690 mmHg 13%
    11:00 +35°C° 0 mm 2 mps 690 mmHg 12%
    12:00 +37°C° 0 mm 2 mps 690 mmHg 10%
    13:00 +38°C° 0 mm 2 mps 689 mmHg 9%
    14:00 +39°C° 0 mm 3 mps 689 mmHg 8%
    15:00 +42°C° 0 mm 3 mps 689 mmHg 7%
    16:00 +41°C° 0 mm 4 mps 688 mmHg 8%
    17:00 +40°C° 0 mm 4 mps 688 mmHg 8%
    18:00 +38°C° 0 mm 4 mps 687 mmHg 9%
    19:00 +36°C° 0 mm 4 mps 687 mmHg 11%
    20:00 +33°C° 0 mm 3 mps 687 mmHg 13%
    21:00 +30°C° 0 mm 3 mps 687 mmHg 14%
    22:00 +29°C° 0 mm 3 mps 687 mmHg 16%
    23:00 +28°C° 0 mm 3 mps 687 mmHg 17%

    Day after tomorrow, 22 August, Thursday

    Time Temperature Precipitation Wind Pressure Humidity
    00:00 +27°C° 0 mm 2 mps 687 mmHg 18%
    01:00 +26°C° 0 mm 2 mps 687 mmHg 19%
    02:00 +26°C° 0 mm 2 mps 686 mmHg 20%
    03:00 +25°C° 0 mm 2 mps 686 mmHg 22%
    04:00 +25°C° 0 mm 2 mps 686 mmHg 23%
    05:00 +25°C° 0 mm 2 mps 686 mmHg 23%
    06:00 +25°C° 0 mm 1 mps 686 mmHg 24%
    07:00 +27°C° 0 mm 1 mps 686 mmHg 21%
    08:00 +29°C° 0 mm 2 mps 687 mmHg 18%
    09:00 +32°C° 0 mm 2 mps 687 mmHg 15%
    10:00 +35°C° 0 mm 2 mps 687 mmHg 13%
    11:00 +36°C° 0 mm 2 mps 686 mmHg 11%
    12:00 +38°C° 0 mm 2 mps 686 mmHg 9%
    13:00 +41°C° 0 mm 4 mps 686 mmHg 9%
    14:00 +42°C° 0 mm 5 mps 686 mmHg 8%
    15:00 +44°C° 0 mm 7 mps 685 mmHg 7%
    16:00 +42°C° 0 mm 6 mps 685 mmHg 8%
    17:00 +41°C° 0 mm 6 mps 685 mmHg 9%
    18:00 +39°C° 0 mm 6 mps 685 mmHg 10%
    19:00 +35°C° 0 mm 6 mps 685 mmHg 12%
    20:00 +33°C° 0 mm 5 mps 685 mmHg 15%
    21:00 +29°C° 0 mm 4 mps 685 mmHg 18%
    22:00 +28°C° 0 mm 3 mps 685 mmHg 19%
    23:00 +27°C° 0 mm 2 mps 685 mmHg 20%

    23 August, Friday

    Time Temperature Precipitation Wind Pressure Humidity
    00:00 +26°C° 0 mm 2 mps 685 mmHg 21%
    01:00 +25°C° 0 mm 1 mps 685 mmHg 22%
    02:00 +24°C° 0 mm 1 mps 685 mmHg 23%
    03:00 +23°C° 0 mm 1 mps 685 mmHg 25%
    04:00 +21°C° 0 mm 0 mps 685 mmHg 25%
    05:00 +21°C° 0 mm 0 mps 685 mmHg 26%
    06:00 +21°C° 0 mm 0 mps 686 mmHg 27%
    07:00 +25°C° 0 mm 1 mps 686 mmHg 23%
    08:00 +28°C° 0 mm 1 mps 686 mmHg 20%
    09:00 +30°C° 0 mm 1 mps 687 mmHg 17%
    10:00 +32°C° 0 mm 1 mps 687 mmHg 15%
    11:00 +33°C° 0 mm 1 mps 687 mmHg 13%
    12:00 +35°C° 0 mm 1 mps 687 mmHg 11%
    13:00 +36°C° 0 mm 1 mps 686 mmHg 10%
    14:00 +39°C° 0 mm 2 mps 686 mmHg 9%
    15:00 +40°C° 0 mm 2 mps 686 mmHg 8%
    16:00 +39°C° 0 mm 3 mps 686 mmHg 9%
    17:00 +38°C° 0 mm 3 mps 686 mmHg 10%
    18:00 +38°C° 0 mm 3 mps 686 mmHg 11%
    19:00 +35°C° 0 mm 3 mps 686 mmHg 15%
    20:00 +31°C° 0 mm 3 mps 686 mmHg 18%
    21:00 +29°C° 0 mm 3 mps 686 mmHg 22%
    22:00 +28°C° 0 mm 2 mps 686 mmHg 24%
    23:00 +27°C° 0 mm 2 mps 686 mmHg 26%

    24 August, Saturday

    Time Temperature Precipitation Wind Pressure Humidity
    00:00 +26°C° 0 mm 1 mps 686 mmHg 29%
    01:00 +25°C° 0 mm 1 mps 686 mmHg 30%
    02:00 +24°C° 0 mm 1 mps 686 mmHg 32%
    03:00 +23°C° 0 mm 1 mps 686 mmHg 33%
    04:00 +21°C° 0 mm 0 mps 686 mmHg 34%
    05:00 +21°C° 0 mm 0 mps 686 mmHg 34%
    06:00 +21°C° 0 mm 0 mps 687 mmHg 35%
    07:00 +24°C° 0 mm 0 mps 687 mmHg 30%
    08:00 +28°C° 0 mm 1 mps 687 mmHg 26%
    09:00 +30°C° 0 mm 1 mps 688 mmHg 22%
    10:00 +32°C° 0 mm 1 mps 688 mmHg 20%
    11:00 +33°C° 0 mm 1 mps 688 mmHg 18%
    12:00 +35°C° 0 mm 1 mps 688 mmHg 16%
    13:00 +36°C° 0 mm 1 mps 688 mmHg 14%
    14:00 +37°C° 0 mm 1 mps 687 mmHg 12%
    15:00 +39°C° 0 mm 1 mps 687 mmHg 11%
    16:00 +37°C° 0 mm 1 mps 687 mmHg 11%
    17:00 +38°C° 0 mm 2 mps 687 mmHg 12%
    18:00 +38°C° 0 mm 2 mps 687 mmHg 13%
    19:00 +35°C° 0 mm 2 mps 688 mmHg 17%
    20:00 +33°C° 0 mm 3 mps 688 mmHg 21%
    21:00 +30°C° 0 mm 3 mps 688 mmHg 26%
    22:00 +29°C° 0 mm 2 mps 688 mmHg 30%
    23:00 +27°C° 0 mm 2 mps 688 mmHg 34%

    25 August, Sunday

    Time Temperature Precipitation Wind Pressure Humidity
    00:00 +26°C° 0 mm 1 mps 688 mmHg 38%
    01:00 +25°C° 0 mm 1 mps 688 mmHg 40%
    02:00 +25°C° 0 mm 1 mps 688 mmHg 42%
    03:00 +24°C° 0 mm 1 mps 688 mmHg 44%
    04:00 +22°C° 0 mm 0 mps 688 mmHg 44%
    05:00 +22°C° 0 mm 0 mps 688 mmHg 44%
    06:00 +22°C° 0 mm 0 mps 688 mmHg 44%
    07:00 +24°C° 0 mm 0 mps 689 mmHg 39%
    08:00 +27°C° 0 mm 1 mps 689 mmHg 34%
    09:00 +29°C° 0 mm 1 mps 689 mmHg 29%
    10:00 +31°C° 0 mm 1 mps 689 mmHg 25%
    11:00 +33°C° 0 mm 1 mps 689 mmHg 22%
    12:00 +36°C° 0 mm 2 mps 689 mmHg 18%
    13:00 +36°C° 0.2 mm 2 mps 689 mmHg 17%
    14:00 +37°C° 0.2 mm 2 mps 689 mmHg 17%
    15:00 +38°C° 0.2 mm 2 mps 689 mmHg 16%
    16:00 +36°C° 0 mm 2 mps 689 mmHg 20%
    17:00 +35°C° 0 mm 2 mps 689 mmHg 23%
    18:00 +34°C° 0 mm 2 mps 689 mmHg 26%
    19:00 +32°C° 0 mm 2 mps 690 mmHg 29%
    20:00 +31°C° 0 mm 2 mps 690 mmHg 32%
    21:00 +30°C° 0 mm 2 mps 690 mmHg 35%
    22:00 +29°C° 0 mm 2 mps 690 mmHg 37%
    23:00 +28°C° 0 mm 1 mps 690 mmHg 39%
    Show more